Location: Unspecified
(0.0000°N, 0.0000°E)
Time: 17:56:57
(UTC+00:00)

STARLINK 1043 - Pass Details

Date: 24 January 2020
Orbit: 548 x 551 km, 53.0° (Epoch: 17 January)

Event Time Altitude Azimuth Distance (km) Brightness Sun altitude
Exits shadow 05:21:25 11° 328° (NNW) 1,744 5.7 -11.9°
Drops below altitude 10° 05:21:54 10° 334° (NNW) 1,823 5.9 -11.8°
Sets 05:25:08 0° 2° (N) 2,696 7.0 -11.0°
